ASIASAT 4

Last updated on Mon Sep 07 2026 00:02:56 GMT+0000 (Coordinated Universal Time)

1 27718U 03014A 26249.33740425 -.00000237 00000+0 00000+0 0 9995 2 27718 4.9054 74.6872 0002656 90.9696 88.8038 1.00272870 46115
UTC large
Height (km)
Speed (km/s)
/
Latitude / Longitude
Inclination (degrees)
Orbital Period (minutes)
Azimuth
Elevation
Range (km)
Doppler Factor

Next 0 passes for location: London (51.5072 / 0.1276)

No passes found over London.
ASIASAT 4